Hourly Data Report for September 20, 2013

All times are specified in Local Standard Time (LST). Add 1 hour to adjust for Daylight Saving Time where and when it is observed.

PETAWAWA AWOS 2
ONTARIO

45°57'00.000" N
77°19'00.000" W
130.10 m
6106396
71625
YWA

Download Data

Hourly Data (September 2013)
Hourly Data Report for September 20, 2013
Temp Definition
°C
Dew Point Temp Definition
°C
Rel Hum Definition
%
Wind Dir Definition
10's deg

Wind Spd Definition
km/h
Visibility Definition
km
Stn Press Definition
kPa
Hmdx Definition


Wind Chill Definition


Weather Definition


TIME
00:00 17.5 15.3 87 12 6 15.0 99.95      
01:00 17.1 15.2 89 11 6 15.0 99.92      
02:00 16.7 15.0 90 11 7 15.0 99.91      
03:00 16.2 14.9 92 11 7 15.0 99.92      
04:00 15.6 14.7 94 11 7 12.9 99.90      
05:00 15.6 14.7 94 13 11 11.3 99.85      
06:00 15.6 14.8 95 11 9 9.7 99.86      
07:00 15.7 14.6 93 12 6 9.7 99.87      
08:00 16.3 14.5 89 11 9 12.9 99.81      
09:00 17.4 14.7 84 10 9 15.0 99.78      
10:00 19.8 15.5 76 11 11 15.0 99.70      
11:00 21.9 16.6 72 10 13 15.0 99.58 27    
12:00 24.3 16.9 63 14 11 15.0 99.46 30    
13:00 26.6 16.6 54 14 17 15.0 99.40 32    
14:00 25.3 15.9 56 15 19 15.0 99.37 30    
15:00 23.9 16.6 64 15 13 15.0 99.35 29    
16:00 23.1 16.8 68 13 11 15.0 99.28 28    
17:00 23.2 16.5 66 16 13 15.0 99.26 28    
18:00 22.5 16.2 68 15 9 15.0 99.23 27    
19:00 21.3 16.8 76 11 13 14.5 99.18 26    
20:00 20.5 16.8 79 12 9 12.9 99.17 26    
21:00 20.3 16.6 79 13 9 12.9 99.13 25   Rain
22:00 19.9 16.7 82 11 9 12.9 99.04      
23:00 19.8 16.5 81 13 6 14.5 98.97      

Notes on Data Quality.

Legend

  • E = Estimated
  • M = Missing
  • NA = Not Available
  • ‡ = Partner data that is not subject to review by the National Climate Archives
Date modified: